SCP
0 0 0 0 0 0 0 0 0 0 0 0 0 0 0 0 0 0 0 0 0 0 0 0 0 0 0 0 0 0 0 0 0 0 0 0 0 0 0 0 0 0 0 0
0 0 0 0 0 0 0 0 0 0 0 0 0 0 0 0 0 0 0 0 0 0 0 0 0 0 0 0 0 0 0 0 0 0 0 0 0 0 0 0 0 0 0 0
0 0 0 0 0 0 0 0 0 0 0 0 0 0 0 0 0 0 0 0 0 0 0 0 0 0 0 0 0 0 0 0 0 0 0 0 0 0 0 0 0 0 0 0
0 0 0 0 0 0 0 0 0 0 0 0 0 0 0 0 0 0 0 0 0 0 0 0 0 0 0 0 0 0 0 0 0 0 0 0 0 0 0 0 0 0 0 0
0 0 0 0 0 0 0 0 0 0 0 0 0 0 0 0 0 0 0 0 0 0 0 0 0 0 0 0 0 0 0 0 0 0 0 0 0 0 0 0 0 0 0 0
0 0 0 0 0 0 0 0 0 0 0 0 0 0 0 0 0 0 0 0 0 0 0 0 0 0 0 0 0 0 0 0 0 0 0 0 0 0 0 0 0 0 0 0
0 0 0 0 0 0 0 0 0 0 0 0 0 0 0 0 0 0 0 0 0 0 0 0 0 0 0 0 0 0 0 0 0 0 0 0 0 0 0 0 0 0 0 0
0 0 0 0 0 0 0 0 0 0 0 0 0 0 0 0 0 0 0 0 0 0 0 0 0 0 0 0 0 0 0 0 0 0 0 0 0 0 0 0 0 0 0 0
0 0 0 0 0 0 0 0 0 0 0 0 0 0 0 0 0 0 0 0 0 0 0 0 0 0 0 0 0 0 0 0 0 0 0 0 0 0 0 0 0 0 0 0
0 0 0 0 0 0 0 0 0 0 0 0 0 0 0 0 0 0 0 0 0 0 0 0 0 0 0 0 0 0 0 0 0 0 0 0 0 0 0 0 0 0 0 0
0 0 0 0 0 0 0 0 0 0 0 0 0 0 0 0 0 0 0 0 0 0 0 0 0 0 0 0 0 0 0 0 0 0 0 0 0 0 0 0 0 0 0 0
0 0 0 0 0 0 0 0 0 0 0 0 0 0 0 0 0 0 0 0 0 0 0 0 0 0 0 0 0 0 0 0 0 0 0 0 0 0 0 0 0 0 0 0
0 0 0 0 0 0 0 0 0 0 0 0 0 0 0 0 0 0 0 0 0 0 0 0 0 0 0 0 0 0 0 0 0 0 0 0 0 0 0 0 0 0 0 0
0 0 0 0 0 0 0 0 0 0 0 0 0 0 0 0 0 0 0 0 0 0 0 0 0 0 0 0 0 0 0 0 0 0 0 0 0 0 0 0 0 0 0 0
0 0 0 0 0 0 0 0 0 0 0 0 0 0 0 0 0 0 0 0 0 0 0 0 0 0 0 0 0 0 0 0 0 0 0 0 0 0 0 0 0 0 0 0
0 0 0 0 0 0 0 0 0 0 0 0 0 0 0 0 0 0 0 0 0 0 0 0 0 0 0 0 0 0 0 0 0 0 0 0 0 0 0 0 0 0 0 0
0 0 0 0 0 0 0 0 0 0 0 0 0 0 0 0 0 0 0 0 0 0 0 0 0 0 0 0 0 0 0 0 0 0 0 0 0 0 0 0 0 0 0 0
0 0 0 0 0 0 0 0 0 0 0 0 0 0 0 0 0 0 0 0 0 0 0 0 0 0 0 0 0 0 0 0 0 0 0 0 0 0 0 0 0 0 0 0
0 0 0 0 0 0 0 0 0 0 0 0 0 0 0 0 0 0 0 0 0 0 0 0 0 0 0 0 0 0 0 0 0 0 0 0 0 0 0 0 0 0 0 0
0 0 0 0 0 0 0 0 0 0 0 0 0 0 0 0 0 0 0 0 0 0 0 0 0 0 0 0 0 0 0 0 0 0 0 0 0 0 0 0 0 0 0 0
0 0 0 0 0 0 0 0 0 0 0 0 0 0 0 0 0 0 0 0 0 0 0 0 0 0 0 0 0 0 0 0 0 0 0 0 0 0 0 0 0 0 0 0
0 0 0 0 0 0 0 0 0 0 0 0 0 0 0 0 0 0 0 0 0 0 0 0 0 0 0 0 0 0 0 0 0 0 0 0 0 0 0 0 0 0 0 0
0 0 0 0 0 0 0 0 0 0 0 -0 -0 0 0 0 0 0 0 0 0 0 0 0 0 0 0 0 0 0 0 0 0 0 0 0 0 0 0 0 0 0 0 0
0 0 0 0 0 0 0 0 0 0 0 0 0 0 0 0 0 0 0 0 0 0 0 0 0 0 0 0 0 0 0 0 0 0 0 0 0 0 0 0 0 0 0 0
0 0 0 0 0 0 0 0 0 0 0 0 0 0 0 0 0 0 0 0 0 0 0 0 0 0 0 0 0 0 0 0 0 0 0 0 0 0 0 0 0 0 0 0
0 0 0 0 0 0 0 0 0 0 0 0 0 0 0 0 0 0 0 0 0 0 0 0 0 0 0 0 0 0 0 0 0 0 0 0 0 0 0 0 0 0 0 0
Wind_Speed
4 6 5 5 5 4 4 4 4 2 1 4 5 5 5 6 7 7 7 7 7 6 6 5 5 5 5 4 4 5 5 4 4 3 2 2 2 2 2 2 2 2 2 3
6 6 3 3 4 4 5 6 5 3 2 4 5 6 5 6 7 7 7 7 7 7 7 7 6 5 5 5 4 4 4 4 4 2 2 2 2 2 2 2 2 2 2 2
7 1 3 5 6 6 6 6 4 3 2 5 5 6 7 6 6 6 6 7 7 7 8 8 7 6 6 5 5 4 4 4 4 4 2 2 2 2 2 2 1 1 1 2
5 3 4 6 5 6 5 3 4 5 6 4 5 6 6 6 7 7 8 7 7 7 7 7 7 7 7 6 5 5 5 4 4 4 3 4 3 2 2 1 2 2 1 1
4 3 5 6 4 6 3 1 4 6 7 7 6 7 3 6 7 7 8 8 8 8 8 8 8 7 7 6 5 5 5 5 4 4 3 3 3 2 2 2 2 2 2 1
3 2 4 3 2 3 4 4 4 5 6 8 5 7 3 4 4 4 6 8 8 8 8 8 8 7 6 6 5 5 5 5 4 4 5 4 4 3 2 2 2 2 1 1
5 5 4 4 5 6 7 7 5 6 6 4 2 6 3 0 2 3 4 6 8 9 9 9 9 8 7 7 6 6 6 5 5 6 5 5 4 4 3 3 3 2 2 1
7 5 5 5 6 6 7 8 6 5 4 2 4 6 1 0 1 2 3 4 6 8 9 9 9 8 7 7 7 7 6 6 6 6 5 5 5 3 3 3 2 3 2 2
5 3 2 2 4 6 7 7 5 7 6 6 4 3 2 3 3 3 3 4 5 7 8 8 8 8 8 7 7 7 6 6 6 6 5 5 4 4 3 4 3 3 3 2
5 4 3 2 4 2 4 4 5 7 6 6 5 6 2 4 3 3 4 4 5 6 8 8 7 7 7 7 7 6 6 6 5 5 4 3 4 4 4 4 4 3 3 3
5 6 4 5 6 5 6 6 6 5 6 6 5 2 1 1 1 2 2 2 3 5 6 7 7 7 6 6 6 6 6 5 5 5 4 4 3 3 4 4 3 4 3 4
3 6 6 5 2 3 6 6 7 7 6 6 6 2 3 1 1 2 2 2 2 3 4 5 6 7 6 6 6 6 6 5 5 4 4 4 3 3 3 3 4 4 3 4
2 5 6 5 6 6 5 4 6 7 7 7 8 4 4 2 1 1 1 1 2 3 4 5 6 6 6 7 6 6 6 5 5 4 4 4 4 4 4 3 3 3 3 3
4 6 7 7 4 3 6 5 6 8 8 9 10 8 4 3 3 2 2 2 2 3 4 5 5 6 6 6 6 6 6 5 5 5 5 5 5 4 4 3 3 3 3 3
4 6 5 6 5 5 7 8 9 11 11 11 10 9 7 6 4 3 3 3 2 3 3 5 5 5 6 6 6 6 6 5 5 5 5 4 4 4 4 4 3 3 3 3
3 5 5 6 5 6 8 9 10 11 11 11 10 9 5 4 3 3 3 3 3 3 3 4 5 5 6 6 6 6 6 5 5 5 4 4 4 4 4 4 4 3 3 3
4 5 6 6 4 7 9 7 8 7 7 7 8 5 3 3 3 4 3 3 3 3 3 3 4 5 5 5 5 6 5 5 5 5 4 4 4 4 4 4 4 4 4 4
6 6 4 5 5 9 0 2 3 6 6 6 5 4 4 4 3 3 3 3 3 3 3 3 4 4 3 3 4 4 4 5 5 5 5 4 4 4 4 4 4 4 4 4
6 6 4 4 6 7 2 1 3 5 5 3 3 3 3 2 3 2 1 2 3 3 3 3 3 3 3 3 4 4 4 5 5 5 5 5 5 5 4 4 4 4 4 4
4 6 6 5 6 6 1 2 1 5 5 1 2 2 2 3 4 2 3 3 4 3 2 2 2 2 3 3 3 4 5 5 5 5 5 5 5 5 5 4 4 3 4 4
5 6 7 7 7 5 2 2 2 5 2 1 2 2 2 4 4 4 4 4 3 2 2 2 2 2 2 2 4 4 4 5 4 4 4 5 5 5 5 4 4 3 3 3
5 5 6 6 7 4 3 2 3 4 4 2 2 2 2 3 3 3 3 3 3 2 2 2 2 2 2 3 4 4 4 4 3 3 4 5 5 4 4 4 4 4 4 4
4 4 3 4 3 4 0 2 4 4 3 3 2 3 3 4 4 4 3 2 2 3 2 2 2 2 2 3 4 4 3 3 3 4 4 4 5 4 4 4 4 3 3 3
3 2 5 5 5 4 4 4 4 4 4 4 4 4 4 4 4 5 4 3 3 3 2 2 3 3 3 3 3 3 3 3 4 4 4 4 5 4 4 3 3 3 3 3
3 4 5 7 6 5 4 5 5 5 5 5 4 4 4 5 5 5 5 4 3 3 3 3 4 4 4 4 3 3 3 4 4 5 4 4 4 4 3 3 2 3 3 3
5 6 6 6 5 6 7 6 5 6 6 5 5 5 5 4 5 6 5 4 4 3 3 4 4 5 4 3 3 3 4 4 4 4 4 4 3 3 3 3 2 2 3 3
Wind_Direction
195 213 211 210 233 270 253 239 231 232 214 233 233 233 214 195 199 206 201 195 191 188 174 166 167 166 167 164 160 149 152 149 146 142 143 136 128 121 100 78 69 70 67 73
204 217 220 215 211 223 227 232 234 217 211 242 245 246 224 210 211 214 213 203 196 187 178 172 174 172 179 171 168 160 153 151 153 148 150 147 133 130 109 103 89 76 76 78
227 196 171 199 204 219 232 246 248 247 229 225 252 236 213 200 207 208 217 218 207 197 189 177 180 179 182 181 177 171 163 158 162 157 150 147 136 144 139 134 107 75 70 79
226 211 205 214 222 239 239 243 250 243 248 244 247 263 210 200 205 206 209 209 209 201 195 184 183 184 185 184 184 181 171 168 164 159 166 170 176 163 156 149 140 155 125 98
208 205 216 227 238 245 260 227 240 247 257 256 231 260 210 193 211 208 204 201 204 201 193 185 186 186 184 177 182 185 175 171 167 170 173 197 192 174 162 165 163 164 139 130
235 225 250 248 238 220 188 202 209 228 243 246 236 250 248 198 219 206 194 196 197 194 188 184 182 183 177 172 177 183 183 176 177 185 190 204 196 189 179 184 185 185 162 180
213 205 204 223 207 189 218 236 233 221 220 236 197 247 256 8 247 231 214 198 191 186 183 183 181 182 178 176 179 185 185 183 186 195 202 206 208 210 207 202 203 210 196 200
231 216 202 221 240 229 224 243 257 267 262 246 207 243 200 105 248 214 200 194 186 184 183 183 184 185 182 180 182 187 189 191 193 203 209 210 208 214 218 212 215 219 224 223
244 224 172 232 248 239 222 229 262 272 273 268 233 229 210 160 167 172 173 173 176 183 185 188 188 189 187 186 187 191 190 193 196 205 210 209 212 214 220 220 218 223 230 231
264 247 199 185 194 212 264 212 215 239 257 254 243 240 216 163 169 172 183 185 182 185 188 189 190 192 192 191 191 191 196 197 196 200 203 202 213 212 221 226 223 221 222 227
253 246 216 202 223 219 197 208 226 239 256 266 259 223 72 188 198 216 205 197 196 193 190 190 191 192 193 189 187 187 191 194 193 199 199 199 204 211 216 219 226 225 221 224
251 257 242 228 220 289 251 243 233 244 235 245 269 261 103 180 238 237 223 189 194 197 196 194 191 187 187 188 188 188 186 188 192 196 196 196 196 203 208 211 216 221 223 223
222 248 246 213 192 199 221 229 243 256 254 243 248 239 131 184 239 251 238 225 201 196 195 187 190 189 186 186 188 189 187 190 188 191 198 197 198 203 208 213 214 218 221 223
262 249 259 269 292 243 228 220 227 240 248 251 250 263 243 257 278 273 261 256 226 207 200 191 192 193 190 189 190 191 192 194 192 192 197 203 206 206 211 216 222 220 220 221
259 258 254 269 279 267 258 245 232 241 254 263 269 268 273 280 277 269 261 256 240 231 214 200 198 197 194 193 195 196 198 197 197 198 201 204 207 204 210 213 219 218 218 227
260 257 256 253 247 258 259 254 247 248 254 258 267 270 288 297 275 263 260 255 249 242 233 213 206 203 203 200 199 198 199 198 198 199 201 196 204 201 208 213 213 214 215 225
223 241 256 257 247 258 249 247 236 232 237 242 259 280 297 285 288 280 269 262 261 257 246 227 213 209 210 209 204 200 198 194 196 197 196 195 202 206 211 211 210 212 215 219
229 235 251 265 250 245 106 66 237 239 238 237 266 291 282 283 283 277 271 273 282 277 263 243 226 214 208 201 197 190 188 190 194 199 199 199 204 210 212 213 215 219 218 214
236 227 233 247 254 261 232 221 244 245 245 228 253 278 295 297 269 255 335 314 306 295 282 263 237 221 204 192 186 182 185 192 198 205 207 205 206 209 211 213 217 220 221 218
195 224 233 233 251 256 53 46 274 244 234 153 264 290 297 272 266 301 346 323 316 308 299 280 238 212 203 195 188 193 197 201 207 209 211 209 207 207 210 212 213 214 215 220
187 201 224 235 249 264 43 47 224 236 330 2 279 285 282 276 307 327 317 309 310 307 303 279 233 210 211 205 202 208 207 214 213 208 206 207 206 205 203 204 205 208 213 214
220 212 217 225 237 244 95 152 245 326 1 319 297 297 294 305 319 318 308 306 307 312 300 265 228 225 217 211 214 218 219 216 209 202 202 203 200 197 195 195 201 205 206 209
234 252 257 240 267 19 341 301 332 340 320 320 304 302 301 299 301 302 300 302 307 296 281 260 237 236 231 224 224 223 220 210 204 202 204 201 198 198 198 195 196 202 205 210
217 243 248 253 264 284 279 292 306 310 309 304 297 295 295 287 289 294 293 289 288 282 273 251 240 239 239 237 238 237 218 209 209 207 207 205 201 199 201 202 204 206 207 214
253 222 246 257 275 287 264 285 296 297 298 295 296 296 295 286 283 285 283 282 284 279 265 246 241 243 243 241 240 229 219 216 220 219 211 207 205 203 206 211 212 219 223 224
229 234 246 262 282 281 286 292 295 293 291 292 293 294 294 287 281 284 283 285 283 274 262 251 244 242 243 242 237 223 217 221 226 224 215 208 201 200 207 207 203 178 215 213